Regional Weather Roundup
Issued by NWS State College, PA

Home | Current Version | Previous Version | Graphics & Text | Print | Product List | Glossary Off
Versions: 1 2 3 4 5 6 7 8 9 10 11 12 13 14 15 16 17 18 19 20 21 22 23 24 25 26 27 28 29 30 31 32 33 34 35 36 37 38 39 40 41 42 43 44 45 46 47 48 49 50

000
ASUS41 KCTP 212210
RWRCTP

REGIONAL WEATHER ROUNDUP
NATIONAL WEATHER SERVICE STATE COLLEGE PA
600 PM EDT SUN SEP 21 2014

Note: "fair" indicates few or no clouds below 12,000 feet with no
significant weather and/or obstructions to visibility.

* = STATION THAT DOES NOT REPORT PRECIPITATION /E.G. RAIN...SNOW...ETC/
    THUNDER OR FOG.

PAZ002>004-007>009-013>016-020>023-029>032-212300-
WESTERN PENNSYLVANIA

CITY           SKY/WX    TMP DP  RH WIND       PRES   REMARKS
ERIE           PTSUNNY   67  51  56 W18G35    29.69R
MEADVILLE      PTSUNNY   64  52  64 W10G20    29.72R
FRANKLIN*      PTSUNNY   66  54  63 W13G23    29.73R
NEW CASTLE     NOT AVBL
BEAVER COUNTY  NOT AVBL
BUTLER*        SUNNY     73  45  35 W16G26    29.71R
PITTSBURGH INT MOSUNNY   75  43  31 W24G33    29.69R
PITTSBURGH     MOSUNNY   75  44  33 NW10G30   29.67R
INDIANA*       MOSUNNY   72  63  73 SW10      29.71R
LATROBE        MOSUNNY   72  64  78 S8        29.68F
WASHINGTON CO* SUNNY     75  46  35 W13G24    29.72R
$$

PAZ004>006-010>012-017>019-024>028-033>037-041-042-045-046-049>053-212300-
CENTRAL PENNSYLVANIA

CITY           SKY/WX    TMP DP  RH WIND       PRES   REMARKS
BRADFORD       CLOUDY    65  57  75 NW12      29.68R
DUBOIS         MOSUNNY   69  64  84 W7        29.65S
CLEARFIELD     PTSUNNY   71  62  73 CALM      29.65S
JOHNSTOWN      PTSUNNY   65  59  81 SW8       29.71F
ALTOONA        LGT RAIN  66  55  67 NW13G22   29.70R
STATE COLLEGE  PTSUNNY   73  61  64 SW14      29.65R
WILLIAMSPORT   SUNNY     75  63  66 S12       29.58F
SELINSGROVE    MOSUNNY   79  64  60 VRB7      29.61F
FT INDIANTOWN  DRIZZLE   79  67  67 SW10      29.63S
CAPITAL CITY   LGT RAIN  73  67  81 CALM      29.63R
HARRISBURG     CLOUDY    73  69  87 N5        29.63R FOG
YORK           PTSUNNY   80  61  52 SW8       29.64S
$$

PAZ038>040-043-044-047-048-054-055-060>062-067>071-212300-
EASTERN PENNSYLVANIA

CITY           SKY/WX    TMP DP  RH WIND       PRES   REMARKS
SCRANTON       MOSUNNY   78  58  49 SW10G20   29.61F
MOUNT POCONO   PTSUNNY   71  59  65 S7        29.68F
ALLENTOWN      PTSUNNY   78  58  49 SW6       29.63F
QUAKERTOWN*    MOCLDY    79  57  47 SW5       29.65F
READING        MOSUNNY   79  62  56 SE8       29.61F
LANCASTER      PTSUNNY   79  61  53 S8        29.62F
COATESVILLE    PTCLDY    75  63  64 CALM      29.66S
POTTSTOWN      MOSUNNY   79  58  48 SW5       29.65F
BLUE BELL      PTSUNNY   79  61  53 SE3       29.63F
DOYLESTOWN     PTSUNNY   74  64  71 S6        29.64S
WILLOW GROVE   NOT AVBL
NORTH PHILA    PTSUNNY   79  60  52 S3        29.64F
PHILADELPHIA   PTSUNNY   77  65  66 S5        29.64F
$$


USA.gov is the U.S. government's official web portal to all federal, state and local government web resources and services.